Regional Weather Roundup
Issued by NWS

Home | Current Version | Previous Version | Graphics & Text | Print | Product List | Glossary On
Versions: 1 2 3 4 5 6 7 8 9 10 11 12 13 14 15 16 17 18 19 20 21 22 23 24 25 26 27 28 29 30 31 32 33 34 35 36 37 38 39 40 41 42 43 44 45 46 47 48 49 50
000
ASUS43 KLSX 051757
RWRMO

WEATHER SUMMARY FOR MISSOURI
NATIONAL WEATHER SERVICE SPRINGFIELD MO
100 PM CDT THU MAY 05 2016

NOTE: "FAIR" INDICATES FEW OR NO CLOUDS BELOW 12,000 FEET WITH NO
       SIGNIFICANT WEATHER AND/OR OBSTRUCTIONS TO VISIBILITY.
       CURRENT SKY AND/OR WEATHER CONDITIONS ARE NOT AVAILABLE FOR
       CHILLICOTHE AND FARMINGTON.

MOZ001>031-035>038-043-044-053-054-051900-
...NORTHERN AND WESTERN MISSOURI...

CITY           SKY/WX    TMP DP  RH WIND       PRES   REMARKS
KANSAS CTY INT CLOUDY    69  38  32 VRB5      30.10F
6HR MIN TEMP:  48; 6HR MAX TEMP:  70;

LEE`S SUMMIT   SUNNY     69  35  28 N9        30.10F
6HR MIN TEMP:  48; 6HR MAX TEMP:  70;

ST JOSEPH      SUNNY     70  36  28 CALM      30.10F
6HR MIN TEMP:  42; 6HR MAX TEMP:  71;

CHILLICOTHE      N/A     68  37  32 NW8       30.10F
6HR MIN TEMP:  46; 6HR MAX TEMP:  69;


$$
MOZ066>068-077>081-088>096-101>105-051900-
...SOUTHWEST MISSOURI...

CITY           SKY/WX    TMP DP  RH WIND       PRES   REMARKS
SPRINGFIELD    SUNNY     70  36  28 N21G26    30.06F
6HR MIN TEMP:  48; 6HR MAX TEMP:  70;

JOPLIN         SUNNY     71  45  39 N16G24    30.09F
6HR MIN TEMP:  44; 6HR MAX TEMP:  72;

BRANSON        SUNNY     68  37  32 NW17G25   30.06F

$$
MOZ032>034-039>042-045>050-055>058-069>072-051900-
...CENTRAL MISSOURI...

CITY           SKY/WX    TMP DP  RH WIND       PRES   REMARKS
COLUMBIA       NOT AVBL
JEFFERSON CITY SUNNY     66  31  27 N16       30.06F
6HR MIN TEMP:  44; 6HR MAX TEMP:  66;

ROLLA          SUNNY     63  37  38 N12       30.04S
6HR MIN TEMP:  46; 6HR MAX TEMP:  63;

SEDALIA        SUNNY     68  34  28 NE12      30.09F
6HR MIN TEMP:  48; 6HR MAX TEMP:  69;

WARRENSBURG    SUNNY     68  32  26 N9        30.09F

$$
MOZ051-052-059>065-051900-
...EAST CENTRAL MISSOURI...

CITY           SKY/WX    TMP DP  RH WIND       PRES   REMARKS
ST LOUIS INTL  MOSUNNY   62  40  44 N14G20    30.04F
6HR MIN TEMP:  49; 6HR MAX TEMP:  63;


$$
MOZ072>076-082>087-097>100-106>115-051900-
...SOUTH CENTRAL AND SOUTHEAST MISSOURI...

CITY           SKY/WX    TMP DP  RH WIND       PRES   REMARKS
CAPE GIRARDEAU SUNNY     63  40  42 N18G31    29.98S
6HR MIN TEMP:  46; 6HR MAX TEMP:  64;

POPLAR BLUFF   SUNNY     66  39  37 N13G21    29.98F
6HR MIN TEMP:  48; 6HR MAX TEMP:  67;

WEST PLAINS    SUNNY     68  33  27 N12G21    30.03F
6HR MIN TEMP:  49; 6HR MAX TEMP:  69;


$$



USA.gov is the U.S. government's official web portal to all federal, state and local government web resources and services.